Weather History for Keahole Point, HI

Change the Weather History Date:

Sunday, February 23, 2014

  Actual Average Record
Temperature  
Mean Temperature 78 °F -  
Max Temperature 84 °F 79 °F 87 °F (1981)
Min Temperature 71 °F 66 °F 63 °F (1993)
Cooling Degree Days 12    
Growing Degree Days 28 (Base 50)    
Moisture  
Dew Point 66 °F    
Average Humidity 69    
Maximum Humidity 78    
Minimum Humidity 58    
Precipitation  
Precipitation 0.00 in - - ()
Sea Level Pressure  
Sea Level Pressure 29.95 in    
Wind  
Wind Speed 7 mph (NNW)    
Max Wind Speed 13 mph    
Max Gust Speed -    
Visibility 10 miles    
Events      
Averages and records for this station are not official NWS values.
T = Trace of Precipitation, MM = Missing Value Source: NWS Daily Summary

Daily Weather History Graph

Daily Weather History Graph

Search for Another Location

Airport:

Trip Planner

Search our weather history database for the weather conditions in past years. The results will help you decide how hot, cold, wet, or windy it might be!

Date:

Astronomy

Feb. 23, 2014 Rise Set
Actual Time 6:47 AM HST 6:27 PM HST
Civil Twilight 6:25 AM HST 6:49 PM HST
Nautical Twilight 6:00 AM HST 7:15 PM HST
Astronomical Twilight 5:34 AM HST 7:40 PM HST
Moon 1:35 AM HST (2/23) 1:03 PM HST (2/23)
Length of Visible Light 12h 23m
Length of Day
11h 39m
Last Quarter, 37% of the Moon is Illuminated
Feb 23
Last Quarter
Feb 28
New
Mar 8
First Quarter
Mar 16
Full
Mar 23
Last Quarter

Hourly Weather History & Observations

Time (HST) Temp. Heat Index Dew Point Humidity Pressure Visibility Wind Dir Wind Speed Gust Speed Precip Events Conditions
12:53 AM 75.0 °F - 64.9 °F 71% 29.96 in 10.0 mi SE 8.1 mph - N/A   Clear
1:53 AM 75.0 °F - 64.9 °F 71% 29.94 in 10.0 mi SE 9.2 mph - N/A   Clear
2:53 AM 73.9 °F - 64.9 °F 73% 29.93 in 10.0 mi ESE 6.9 mph - N/A   Clear
3:53 AM 73.0 °F - 64.0 °F 73% 29.93 in 10.0 mi ESE 5.8 mph - N/A   Clear
4:53 AM 73.0 °F - 64.9 °F 76% 29.94 in 10.0 mi ESE 5.8 mph - N/A   Clear
5:53 AM 73.0 °F - 64.0 °F 73% 29.95 in 10.0 mi East 5.8 mph - N/A   Clear
6:53 AM 71.1 °F - 64.0 °F 78% 29.96 in 10.0 mi ENE 4.6 mph - N/A   Clear
7:53 AM 75.0 °F - 63.0 °F 66% 29.98 in 10.0 mi NE 5.8 mph - N/A   Clear
8:53 AM 79.0 °F - 68.0 °F 69% 29.99 in 10.0 mi WNW 3.5 mph - N/A   Clear
9:53 AM 79.0 °F - 68.0 °F 69% 29.99 in 10.0 mi West 5.8 mph - N/A   Clear
10:53 AM 81.0 °F 84.1 °F 69.1 °F 67% 29.99 in 10.0 mi West 8.1 mph - N/A   Clear
11:53 AM 82.9 °F 85.8 °F 68.0 °F 60% 29.97 in 10.0 mi West 11.5 mph - N/A   Clear
12:53 PM 84.0 °F 87.0 °F 68.0 °F 58% 29.94 in 10.0 mi West 12.7 mph - N/A   Clear
1:53 PM 84.0 °F 87.8 °F 69.1 °F 61% 29.93 in 10.0 mi West 11.5 mph - N/A   Partly Cloudy
2:53 PM 82.0 °F 85.5 °F 69.1 °F 65% 29.92 in 10.0 mi WNW 11.5 mph - N/A   Clear
3:53 PM 82.0 °F 84.9 °F 68.0 °F 62% 29.92 in 10.0 mi West 9.2 mph - N/A   Scattered Clouds
4:53 PM 81.0 °F 83.8 °F 68.0 °F 65% 29.92 in 10.0 mi NW 8.1 mph - N/A   Clear
5:53 PM 80.1 °F 82.9 °F 69.1 °F 69% 29.93 in 10.0 mi WNW 8.1 mph - N/A   Clear
6:53 PM 79.0 °F - 68.0 °F 69% 29.94 in 10.0 mi NW 6.9 mph - N/A   Partly Cloudy
7:53 PM 79.0 °F - 70.0 °F 74% 29.95 in 10.0 mi NNW 6.9 mph - N/A   Clear
8:53 PM 77.0 °F - 66.9 °F 71% 29.97 in 10.0 mi East 3.5 mph - N/A   Clear
9:53 PM 75.9 °F - 64.9 °F 69% 29.97 in 10.0 mi NE 3.5 mph - N/A   Clear
10:53 PM 75.0 °F - 63.0 °F 66% 29.97 in 10.0 mi Calm Calm - N/A   Clear
11:53 PM 73.9 °F - 64.0 °F 71% 29.96 in 10.0 mi ENE 3.5 mph - N/A   Clear